GW3691 Weather Reports


Display with metric or nautical units.
time (UTC)temp
F
wind
direction
speed
MPH
gust
MPH
rain 1hr
in
rain 24hr
in
rain mn
in
humidity
%
barometer
mb
20260905000633 74 142 0.0 0.0 0.07 0.48 0.48 95 1019.7
20260905000128 74 152 0.0 0.0 0.00 0.47 0.47 95 1019.7
20260904235623 74 147 0.0 0.0 0.05 0.47 0.47 95 1019.7
20260904235122 74 152 0.0 0.0 0.05 0.47 0.47 95 1019.3
20260904234617 75 145 0.0 0.0 0.12 0.46 0.46 95 1019.2
20260904234113 74 157 0.0 0.0 0.12 0.45 0.45 95 1019.0
20260904233608 75 143 0.0 0.0 0.19 0.44 0.44 95 1019.0
20260904233059 75 141 0.0 0.0 0.12 0.42 0.42 95 1018.6
20260904232555 75 165 0.0 0.0 0.05 0.41 0.41 94 1018.4
20260904232051 75 168 0.0 0.0 0.07 0.40 0.40 94 1018.6
20260904231547 75 162 0.0 0.0 0.12 0.40 0.40 94 1018.8
20260904231042 75 158 0.0 0.0 0.12 0.39 0.39 94 1018.7
20260904230541 75 166 1.0 1.0 0.26 0.38 0.38 94 1018.9
20260904230036 76 188 1.0 1.0 0.35 0.36 0.36 93 1019.5
20260904225534 76 139 0.0 0.0 0.66 0.33 0.33 93 1019.9
20260904225033 76 136 0.0 0.0 0.66 0.29 0.29 93 1020.2
20260904224529 77 148 1.0 1.0 0.47 0.22 0.22 92 1019.8
20260904224029 78 185 1.0 1.0 0.42 0.17 0.17 90 1019.5
20260904223528 81 205 5.0 6.0 0.26 0.14 0.14 87 1019.8
20260904223024 82 210 2.0 2.0 0.00 0.10 0.10 85 1019.3
20260904222519 84 218 3.0 5.0 0.00 0.10 0.10 85 1019.0
20260904222014 84 159 0.0 0.0 0.00 0.10 0.10 86 1018.3
20260904221508 84 158 0.0 0.0 0.00 0.10 0.10 85 1018.3
20260904221003 84 158 0.0 0.0 0.00 0.10 0.10 85 1018.0
20260904220503 84 157 0.0 0.0 0.00 0.10 0.10 84 1017.8
20260904215958 84 149 0.0 0.0 0.00 0.10 0.10 83 1017.4
20260904215453 85 151 0.0 0.0 0.00 0.10 0.10 84 1017.5
20260904214948 84 155 1.0 1.0 0.00 0.10 0.10 82 1017.5
20260904214443 85 153 1.0 2.0 0.00 0.10 0.10 82 1017.5
20260904213939 85 138 1.0 1.0 0.00 0.10 0.10 82 1017.6
20260904213432 85 166 1.0 1.0 0.00 0.10 0.10 83 1017.4
20260904212928 85 146 0.0 0.0 0.00 0.10 0.10 84 1017.7
20260904212428 85 150 0.0 0.0 0.00 0.10 0.10 85 1017.5
20260904211923 85 161 1.0 1.0 0.00 0.10 0.10 86 1017.5
20260904211418 85 127 0.0 1.0 0.00 0.10 0.10 87 1017.4
20260904210914 84 129 1.0 2.0 0.00 0.10 0.10 87 1017.3
20260904210412 85 140 1.0 1.0 0.00 0.10 0.10 87 1017.3
20260904205909 84 158 0.0 1.0 0.00 0.10 0.10 89 1017.4
20260904205404 85 153 0.0 0.0 0.00 0.10 0.10 90 1017.3
20260904204901 84 160 0.0 0.0 0.00 0.10 0.10 90 1017.3
20260904204356 84 158 1.0 2.0 0.00 0.10 0.10 90 1017.5
20260904203853 84 173 1.0 1.0 0.00 0.10 0.10 92 1017.5
20260904203349 83 133 1.0 2.0 0.00 0.10 0.10 92 1017.6
20260904202845 83 142 0.0 0.0 0.00 0.10 0.10 93 1017.7
20260904202341 84 145 1.0 1.0 0.00 0.10 0.10 93 1017.7
20260904201836 83 82 3.0 3.0 0.00 0.10 0.10 93 1017.6
20260904201336 83 151 1.0 1.0 0.00 0.10 0.10 93 1017.8
20260904200832 83 153 1.0 2.0 0.05 0.10 0.10 93 1018.2
20260904200330 83 107 0.0 1.0 0.17 0.10 0.10 93 1018.1
20260904195825 84 141 0.0 1.0 0.12 0.08 0.08 93 1018.1
20260904195323 84 143 0.0 0.0 0.07 0.07 0.07 93 1018.1
20260904194818 83 154 1.0 1.0 0.12 0.06 0.06 93 1018.2
20260904194318 84 124 1.0 1.0 0.12 0.06 0.06 93 1018.2
20260904193813 83 152 0.0 0.0 0.00 0.04 0.04 93 1018.2
20260904193309 84 151 0.0 0.0 0.00 0.04 0.04 93 1018.3
20260904192804 83 158 0.0 0.0 0.00 0.04 0.04 93 1018.1
20260904192259 83 144 0.0 0.0 0.00 0.04 0.04 93 1018.1
20260904191756 83 168 0.0 0.0 0.00 0.04 0.04 93 1018.3
20260904191252 83 162 1.0 1.0 0.00 0.04 0.04 92 1018.4
20260904190748 83 164 0.0 0.0 0.00 0.04 0.04 92 1018.5
20260904190244 83 151 0.0 0.0 0.00 0.04 0.04 92 1018.7
20260904185739 83 159 0.0 0.0 0.00 0.04 0.04 92 1018.7
20260904185234 83 167 0.0 0.0 0.00 0.04 0.04 91 1018.7
20260904184733 83 157 0.0 1.0 0.05 0.04 0.04 91 1018.6
20260904184229 84 357 2.0 3.0 0.17 0.04 0.04 90 1018.5
20260904183724 85 157 1.0 1.0 0.19 0.03 0.03 88 1018.4
20260904183219 86 154 2.0 3.0 0.00 0.00 0.00 85 1018.5
20260904182714 86 114 0.0 1.0 0.00 0.00 0.00 83 1018.6
20260904182209 87 110 4.0 5.0 0.00 0.00 0.00 82 1018.5
20260904181705 87 108 2.0 3.0 0.00 0.00 0.00 82 1018.7
20260904181204 88 77 2.0 3.0 0.00 0.00 0.00 81 1018.7
20260904180700 88 69 1.0 2.0 0.00 0.00 0.00 80 1018.7
20260904180155 89 46 5.0 8.0 0.00 0.00 0.00 79 1018.8
20260904175654 89 161 1.0 1.0 0.00 0.00 0.00 78 1018.8
20260904175153 89 155 2.0 2.0 0.00 0.00 0.00 79 1019.1
20260904174647 89 142 1.0 1.0 0.00 0.00 0.00 78 1018.9
20260904174143 90 94 2.0 3.0 0.00 0.00 0.00 77 1018.9
20260904173638 90 150 1.0 1.0 0.00 0.00 0.00 78 1018.8
20260904173128 90 146 2.0 2.0 0.00 0.00 0.00 76 1019.3
20260904172625 90 152 0.0 0.0 0.00 0.00 0.00 77 1019.1
20260904172124 91 115 5.0 5.0 0.00 0.00 0.00 75 1019.0
20260904171619 91 65 2.0 2.0 0.00 0.00 0.00 75 1019.3
20260904171115 90 129 3.0 3.0 0.00 0.00 0.00 78 1019.3
20260904170610 89 150 1.0 1.0 0.00 0.00 0.00 77 1019.3
20260904170106 90 102 1.0 1.0 0.00 0.00 0.00 77 1019.4
20260904165605 92 113 1.0 1.0 0.00 0.00 0.00 72 1019.4
20260904165104 92 210 2.0 2.0 0.00 0.00 0.00 69 1019.6
20260904164559 93 186 1.0 1.0 0.00 0.00 0.00 65 1019.6
20260904164054 95 180 0.0 0.0 0.00 0.00 0.00 66 1019.5
20260904163549 95 156 1.0 2.0 0.00 0.00 0.00 65 1019.7
20260904163044 93 186 1.0 2.0 0.00 0.00 0.00 65 1019.9
20260904162538 93 167 1.0 1.0 0.00 0.00 0.00 68 1019.8
20260904162034 92 179 3.0 3.0 0.00 0.00 0.00 69 1019.6
20260904161529 91 202 3.0 3.0 0.00 0.00 0.00 71 1019.7
20260904161024 92 167 1.0 1.0 0.00 0.00 0.00 70 1019.7
20260904160519 92 122 0.0 0.0 0.00 0.00 0.00 69 1019.7
20260904160016 91 139 0.0 0.0 0.00 0.00 0.00 71 1019.9
20260904155515 92 155 0.0 0.0 0.00 0.00 0.00 68 1020.1
20260904155014 92 155 0.0 1.0 0.00 0.00 0.00 70 1019.9
20260904154508 91 206 2.0 2.0 0.00 0.00 0.00 71 1020.0
20260904154003 91 195 1.0 2.0 0.00 0.00 0.00 71 1020.1
20260904153457 90 164 0.0 0.0 0.00 0.00 0.00 73 1019.8
20260904152954 90 161 1.0 1.0 0.00 0.00 0.00 73 1019.9
20260904152449 90 150 1.0 1.0 0.00 0.00 0.00 72 1019.8
20260904151949 89 159 0.0 0.0 0.00 0.00 0.00 74 1020.1
20260904151444 89 153 0.0 0.0 0.00 0.00 0.00 74 1020.0
20260904150939 90 197 1.0 2.0 0.00 0.00 0.00 73 1020.0
20260904150434 90 148 0.0 0.0 0.00 0.00 0.00 74 1019.9
20260904145932 90 155 0.0 0.0 0.00 0.00 0.00 73 1020.1
20260904145428 90 156 0.0 0.0 0.00 0.00 0.00 73 1019.9
20260904144924 90 151 0.0 0.0 0.00 0.00 0.00 74 1019.9
20260904144419 89 143 0.0 0.0 0.00 0.00 0.00 76 1019.7
20260904143914 88 151 0.0 1.0 0.00 0.00 0.00 78 1019.8
20260904143411 87 157 0.0 0.0 0.00 0.00 0.00 78 1019.8
20260904142902 87 160 0.0 0.0 0.00 0.00 0.00 77 1019.7
20260904142357 87 166 0.0 0.0 0.00 0.00 0.00 79 1019.8
20260904141856 87 165 0.0 0.0 0.00 0.00 0.00 79 1019.7
20260904141352 86 166 0.0 0.0 0.00 0.00 0.00 79 1019.8
20260904140848 85 161 0.0 0.0 0.00 0.00 0.00 81 1019.5
20260904140343 85 166 0.0 0.0 0.00 0.00 0.00 83 1019.7
20260904135837 85 189 0.0 1.0 0.00 0.00 0.00 83 1019.8
20260904135332 85 184 0.0 0.0 0.00 0.00 0.00 82 1019.5
20260904134828 85 168 0.0 1.0 0.00 0.00 0.00 82 1019.9
20260904134327 85 214 3.0 3.0 0.00 0.00 0.00 82 1019.5
20260904133822 86 151 0.0 1.0 0.00 0.00 0.00 81 1019.6
20260904133318 84 189 1.0 2.0 0.00 0.00 0.00 84 1019.6
20260904132818 84 192 1.0 1.0 0.00 0.00 0.00 85 1019.5
20260904132313 84 159 0.0 0.0 0.00 0.00 0.00 85 1019.4
20260904131812 84 150 0.0 0.0 0.00 0.00 0.00 85 1019.3
20260904131308 84 146 0.0 0.0 0.00 0.00 0.00 85 1019.4
20260904130807 84 138 0.0 0.0 0.00 0.00 0.00 85 1019.6
20260904130307 83 153 0.0 0.0 0.00 0.00 0.00 87 1019.4
20260904125803 83 159 0.0 0.0 0.00 0.00 0.00 87 1019.5
20260904125259 82 173 0.0 0.0 0.00 0.00 0.00 88 1019.6
20260904124758 82 164 0.0 1.0 0.00 0.00 0.00 87 1019.5
20260904124255 82 153 0.0 1.0 0.00 0.00 0.00 88 1019.5
20260904123750 81 163 1.0 1.0 0.00 0.00 0.00 89 1019.5
20260904123245 81 148 0.0 0.0 0.00 0.00 0.00 92 1019.5
20260904122739 80 145 0.0 0.0 0.00 0.00 0.00 94 1019.2
20260904122234 80 142 0.0 0.0 0.00 0.00 0.00 95 1019.6
20260904121730 80 142 0.0 0.0 0.00 0.00 0.00 95 1019.6
20260904121225 79 143 0.0 0.0 0.00 0.00 0.00 95 1019.2
20260904120721 78 143 0.0 0.0 0.00 0.00 0.00 95 1019.4
20260904120217 78 144 0.0 0.0 0.00 0.00 0.00 95 1019.3
20260904115712 78 144 0.0 0.0 0.00 0.00 0.00 95 1019.1
20260904115212 78 144 0.0 0.0 0.00 0.00 0.00 95 1019.4
20260904114707 77 143 0.0 0.0 0.00 0.00 0.00 95 1019.1
20260904114201 77 143 0.0 0.0 0.00 0.00 0.00 95 1019.0
20260904113656 77 143 0.0 0.0 0.00 0.00 0.00 95 1019.2
20260904113155 77 143 0.0 0.0 0.00 0.00 0.00 95 1018.9
20260904112650 77 143 0.0 0.0 0.00 0.00 0.00 95 1018.9
20260904112146 77 143 0.0 0.0 0.00 0.00 0.00 95 1018.8
20260904111642 77 143 0.0 0.0 0.00 0.00 0.00 95 1018.7
20260904111137 77 143 0.0 0.0 0.00 0.00 0.00 95 1019.1
20260904110632 77 143 0.0 0.0 0.00 0.00 0.00 95 1018.7
20260904110126 78 143 0.0 0.0 0.00 0.00 0.00 95 1018.7
20260904105626 78 143 0.0 0.0 0.00 0.00 0.00 95 1018.5
20260904105121 78 143 0.0 0.0 0.00 0.00 0.00 95 1018.8
20260904104617 78 143 0.0 0.0 0.00 0.00 0.00 95 1018.6
20260904104112 77 143 0.0 0.0 0.00 0.00 0.00 95 1018.3
20260904103608 78 143 0.0 0.0 0.00 0.00 0.00 95 1018.8
20260904103104 78 143 0.0 0.0 0.00 0.00 0.00 95 1018.5
20260904102600 78 143 0.0 0.0 0.00 0.00 0.00 95 1018.1
20260904102055 78 143 0.0 0.0 0.00 0.00 0.00 95 1018.2
20260904101551 78 143 0.0 0.0 0.00 0.00 0.00 95 1018.3
20260904101047 78 143 0.0 0.0 0.00 0.00 0.00 95 1018.0
20260904100542 78 143 0.0 0.0 0.00 0.00 0.00 95 1018.1
20260904100037 78 143 0.0 0.0 0.00 0.00 0.00 95 1018.1
20260904095532 78 143 0.0 0.0 0.00 0.00 0.00 95 1018.0
20260904095027 78 143 0.0 0.0 0.00 0.00 0.00 95 1017.9
20260904094521 78 143 0.0 0.0 0.00 0.00 0.00 95 1018.0
20260904094017 78 143 0.0 0.0 0.00 0.00 0.00 95 1017.9
20260904093514 78 143 0.0 0.0 0.00 0.00 0.00 95 1018.2
20260904093003 78 143 0.0 0.0 0.00 0.00 0.00 95 1018.0
20260904092459 78 143 0.0 0.0 0.00 0.00 0.00 95 1018.2
20260904091955 78 143 0.0 0.0 0.00 0.00 0.00 95 1017.9
20260904091451 78 142 0.0 0.0 0.00 0.00 0.00 95 1018.0
20260904090950 78 142 0.0 0.0 0.00 0.00 0.00 95 1017.9
20260904090446 78 142 0.0 0.0 0.00 0.00 0.00 95 1018.1
20260904085941 78 142 0.0 0.0 0.00 0.00 0.00 95 1018.3
20260904085436 78 142 0.0 0.0 0.00 0.00 0.00 95 1018.0
20260904084936 78 142 0.0 0.0 0.00 0.00 0.00 95 1018.1
20260904084432 78 142 0.0 0.0 0.00 0.00 0.00 95 1018.3
20260904083928 78 142 0.0 0.0 0.00 0.00 0.00 95 1018.0
20260904083424 78 142 0.0 0.0 0.00 0.00 0.00 95 1017.9
20260904082920 78 142 0.0 0.0 0.00 0.00 0.00 95 1017.9
20260904082420 78 142 0.0 0.0 0.00 0.00 0.00 95 1017.9
20260904081915 78 142 0.0 0.0 0.00 0.00 0.00 95 1018.1
20260904081410 78 142 0.0 0.0 0.00 0.00 0.00 95 1018.1
20260904080906 78 142 0.0 0.0 0.00 0.00 0.00 95 1018.0
20260904080401 78 142 0.0 0.0 0.00 0.00 0.00 95 1017.9
20260904075857 78 142 0.0 0.0 0.00 0.00 0.00 95 1018.0
20260904075353 78 142 0.0 0.0 0.00 0.00 0.00 95 1017.9
20260904074851 78 142 0.0 0.0 0.00 0.00 0.00 95 1017.8
20260904074346 78 143 0.0 0.0 0.00 0.00 0.00 95 1018.2
20260904073842 78 143 0.0 0.0 0.00 0.00 0.00 95 1018.1
20260904073338 78 143 0.0 0.0 0.00 0.00 0.00 95 1018.0
20260904072833 78 143 0.0 0.0 0.00 0.00 0.00 95 1017.7
20260904072332 78 143 0.0 0.0 0.00 0.00 0.00 95 1017.8
20260904071829 78 143 0.0 0.0 0.00 0.00 0.00 95 1017.7
20260904071324 78 143 0.0 0.0 0.00 0.00 0.00 95 1017.9
20260904070819 78 143 0.0 0.0 0.00 0.00 0.00 95 1017.8
20260904070317 78 143 0.0 0.0 0.00 0.00 0.00 95 1017.7
20260904065812 79 143 0.0 0.0 0.00 0.00 0.00 95 1017.8
20260904065308 79 143 0.0 0.0 0.00 0.00 0.00 95 1018.0
20260904064803 78 143 0.0 0.0 0.00 0.00 0.00 95 1017.8
20260904064259 78 143 0.0 0.0 0.00 0.00 0.00 95 1017.9
20260904063755 78 143 0.0 0.0 0.00 0.00 0.00 94 1018.0
20260904063251 78 143 0.0 0.0 0.00 0.00 0.00 94 1017.8
20260904062746 78 143 0.0 0.0 0.00 0.00 0.00 94 1018.0
20260904062242 79 143 0.0 0.0 0.00 0.00 0.00 94 1018.1
20260904061737 79 143 0.0 0.0 0.00 0.00 0.00 94 1018.0
20260904061233 79 143 0.0 0.0 0.00 0.00 0.00 94 1018.2
20260904060730 79 143 0.0 0.0 0.00 0.00 0.00 94 1018.4
20260904060225 79 143 0.0 0.0 0.00 0.00 0.00 94 1018.1
20260904055720 79 143 0.0 0.0 0.00 0.00 0.00 94 1018.1
20260904055215 79 143 0.0 0.0 0.00 0.00 0.00 94 1018.4
20260904054710 79 143 0.0 0.0 0.00 0.00 0.00 94 1018.6
20260904054207 79 143 0.0 0.0 0.00 0.00 0.00 94 1018.6
20260904053701 79 143 0.0 0.0 0.00 0.00 0.00 94 1018.9
20260904053156 79 143 0.0 0.0 0.00 0.00 0.00 94 1018.8
20260904052653 79 143 0.0 0.0 0.00 0.00 0.00 93 1018.6
20260904052148 79 143 0.0 0.0 0.00 0.00 0.00 93 1018.7
20260904051644 79 143 0.0 0.0 0.00 0.00 0.00 93 1019.1
20260904051139 79 143 0.0 0.0 0.00 0.00 0.00 93 1018.9
20260904050635 79 143 0.0 0.0 0.00 0.00 0.00 93 1018.9
20260904050131 79 143 0.0 0.0 0.00 0.00 0.00 93 1018.8
20260904045630 79 143 0.0 0.0 0.00 0.00 0.00 93 1018.8
20260904045125 79 143 0.0 0.0 0.00 0.00 0.00 93 1018.9
20260904044621 79 143 0.0 0.0 0.00 0.00 0.00 93 1019.2
20260904044117 79 143 0.0 0.0 0.00 0.00 0.00 93 1018.8
20260904043613 79 142 0.0 0.0 0.00 0.00 0.00 93 1019.0
20260904043109 79 142 0.0 0.0 0.00 0.00 0.00 93 1019.0
20260904042605 79 142 0.0 0.0 0.00 0.00 0.00 92 1018.9
20260904042100 79 143 0.0 0.0 0.00 0.00 0.00 92 1019.1
20260904041555 79 140 0.0 0.0 0.00 0.00 0.00 92 1019.0
20260904041052 79 144 0.0 0.0 0.00 0.00 0.00 92 1018.8
20260904040552 79 144 0.0 0.0 0.00 0.00 0.00 92 1018.8
20260904040049 79 144 0.0 0.0 0.00 0.00 0.00 92 1019.2
20260904035548 79 142 0.0 0.0 0.00 0.00 0.00 92 1018.9
20260904035043 79 142 0.0 0.0 0.00 0.00 0.00 92 1019.1
20260904034538 79 144 0.0 0.0 0.00 0.00 0.00 92 1018.9
20260904034033 79 144 0.0 0.0 0.00 0.00 0.00 91 1018.9
20260904033529 79 144 0.0 0.0 0.00 0.00 0.00 91 1019.2
20260904033026 79 144 0.0 0.0 0.00 0.00 0.00 91 1019.1
20260904032521 79 144 0.0 0.0 0.00 0.00 0.00 91 1019.3
20260904032020 79 144 0.0 0.0 0.00 0.00 0.00 91 1019.1
20260904031515 79 144 0.0 0.0 0.00 0.00 0.00 91 1019.2
20260904031012 79 143 0.0 0.0 0.00 0.00 0.00 91 1019.2
20260904030507 79 143 0.0 0.0 0.00 0.00 0.00 91 1019.0
20260904030002 79 144 0.0 0.0 0.00 0.00 0.00 91 1018.9
20260904025458 79 143 0.0 0.0 0.00 0.00 0.00 91 1019.0
20260904024958 79 143 0.0 0.0 0.00 0.00 0.00 91 1018.9
20260904024453 79 143 0.0 0.0 0.00 0.00 0.00 91 1018.8
20260904023949 79 144 0.0 0.0 0.00 0.00 0.00 91 1018.7
20260904023445 79 146 0.0 0.0 0.00 0.00 0.00 90 1018.5
20260904022944 79 146 0.0 0.0 0.00 0.00 0.00 90 1018.5
20260904022440 79 146 0.0 0.0 0.00 0.00 0.00 90 1018.6
20260904021937 79 143 0.0 0.0 0.00 0.00 0.00 90 1018.6
20260904021432 80 127 1.0 1.0 0.00 0.00 0.00 90 1018.8
20260904020927 80 142 0.0 0.0 0.00 0.00 0.00 90 1018.6
20260904020422 80 142 0.0 0.0 0.00 0.00 0.00 90 1018.7
20260904015920 80 143 0.0 0.0 0.00 0.00 0.00 90 1018.4
20260904015417 80 146 0.0 0.0 0.00 0.00 0.00 89 1018.7
20260904014915 80 146 0.0 0.0 0.00 0.00 0.00 89 1018.6
20260904014410 80 148 0.0 0.0 0.00 0.00 0.00 89 1018.4
20260904013906 80 149 0.0 0.0 0.00 0.00 0.00 89 1018.5
20260904013402 80 143 0.0 0.0 0.00 0.00 0.00 89 1018.8
20260904012857 80 142 0.0 0.0 0.00 0.00 0.00 89 1018.5
20260904012352 80 145 0.0 0.0 0.00 0.00 0.00 88 1018.8
20260904011851 80 144 0.0 0.0 0.00 0.00 0.00 88 1018.5
20260904011346 80 141 0.0 0.0 0.00 0.00 0.00 89 1018.7
20260904010841 80 154 0.0 0.0 0.00 0.00 0.00 89 1018.6
20260904010338 80 148 0.0 0.0 0.00 0.00 0.00 89 1018.4
20260904005832 80 145 0.0 0.0 0.00 0.00 0.00 89 1018.4
20260904005328 80 114 0.0 0.0 0.00 0.00 0.00 90 1018.5
20260904004829 80 145 0.0 0.0 0.00 0.00 0.00 89 1018.5
20260904004326 80 150 0.0 0.0 0.00 0.00 0.00 89 1018.4
20260904003820 80 130 0.0 0.0 0.00 0.00 0.00 89 1018.5
20260904003316 80 142 0.0 0.0 0.00 0.00 0.00 89 1018.2
20260904002811 80 134 0.0 0.0 0.00 0.00 0.00 89 1018.5
20260904002307 80 155 0.0 0.0 0.00 0.00 0.00 89 1018.4
20260904001807 80 145 0.0 0.0 0.00 0.00 0.00 89 1018.5
20260904001302 80 156 0.0 0.0 0.00 0.00 0.00 89 1018.3